Flag for Greenland Weather past 2 weeks in Ittoqqortoormiit, Greenland

Now
42 °F

Clear.


Feels Like: 34 °F
Forecast: 23 / 34 °F
Wind: 16 mph from Northwest

Location: Scoresbysund

Current Time: Sep 17, 2014 at 1:49:03 AM

Latest Report: Sep 17, 2014 at 1:00 AM


Visibility: 31 mi

Pressure: 30.29 "Hg

Humidity: 18%

Dew point: 2 °F

Location of IttoqqortoormiitLocation

Historic Weather in Ittoqqortoormiit — Graph

°F

Ittoqqortoormiit temperature yesterday

Maximum temperature yesterday: 44 °F (at 5:00 PM)
Minimum temperature yesterday: 36 °F (at 8:00 AM)
Average temperature yesterday: 41 °F

Past Weeks' High & Low Weather Summary

 TemperatureHumidityPressure
High48 °F (Sep 15, 1:00 PM)100% (Sep 5, 4:00 AM)30.28 "Hg (Sep 5, 4:00 AM)
Low33 °F (Sep 10, 2:00 AM)18% (Sep 13, 5:00 PM)29.12 "Hg (Sep 12, 6:00 PM)
Average40 °F80%29.70 "Hg
* Reported Midnight between Sep 1 and Sep 2 — Midnight between Sep 16 and Sep 17, Ittoqqortoormiit, Weather by CustomWeather, © 2014

Note: Actual official high and low records may vary slightly from our data, if they occured in-between our weather recording intervals... More about our weather records

Advertising

Ittoqqortoormiit weather history for previous 24 hours

 ConditionsComfort  
Time TempWeatherWind HumidityBarometerVisibility
12:00 AM
Sep 17
39 °FClear.14 mph36%30.28 "Hg31 mi
11:00 PM
Sep 16
40 °FClear.13 mph34%30.28 "HgN/A
10:00 PM40 °FClear.13 mph37%30.26 "Hg31 mi
9:00 PM41 °FClear.12 mph36%30.22 "Hg31 mi
8:00 PM42 °FSunny.18 mph34%30.18 "Hg31 mi
7:00 PM43 °FSunny.21 mph28%30.14 "Hg28 mi
6:00 PM44 °FSunny.21 mph26%30.10 "Hg28 mi
5:00 PM44 °FSunny.18 mph26%30.07 "Hg28 mi
4:00 PM43 °FSunny.16 mph31%30.04 "Hg28 mi
3:00 PM43 °FSunny.22 mph29%30.01 "Hg25 mi
2:00 PM43 °FSunny.22 mph29%29.98 "Hg25 mi
1:00 PM42 °FSunny.21 mph34%29.96 "Hg22 mi
12:00 PM41 °FScattered clouds.15 mph43%29.93 "Hg28 mi
11:00 AM41 °FOvercast.18 mph38%29.90 "Hg31 mi
10:00 AM41 °FPassing clouds.6 mph45%29.86 "Hg28 mi
9:00 AM40 °FPassing clouds.13 mph42%29.85 "Hg31 mi
8:00 AM36 °FPassing clouds.2 mph74%29.81 "Hg28 mi
7:00 AM37 °FPartly sunny.5 mph69%29.77 "Hg28 mi
6:00 AM41 °FOvercast.13 mph43%29.73 "Hg31 mi
5:00 AM42 °FClear.7 mph37%29.69 "Hg31 mi
4:00 AM42 °FClear.9 mph44%29.65 "Hg31 mi
3:00 AM43 °FClear.10 mph42%29.62 "Hg31 mi
2:00 AM41 °FClear.6 mph72%29.61 "Hg14 mi
1:00 AM38 °FClear.13 mph89%29.59 "Hg7 mi
Weather by CustomWeather, © 2014

See weather overviewHow to use our weather pages